Ball Ground, GA

3:46 PM EST on February 10, 2016 (GMT -0500)
Canton

Weather History for KCNI - February, 2014

Change the Weather History Date:

Saturday, February 1, 2014

  Actual Average (KGVL) Record (KGVL)
Temperature  
Mean Temperature 44 °F 43 °F  
Max Temperature 59 °F 52 °F 74 °F (1957)
Min Temperature 28 °F 34 °F 3 °F (1936)
Degree Days  
Heating Degree Days 22 22  
Month to date heating degree days 22  
Since 1 July heating degree days 1940  
Moisture  
Dew Point 19 °F    
Average Humidity 39    
Maximum Humidity 64    
Minimum Humidity 15    
Precipitation  
Precipitation 0.00 in 0.18 in 1.35 in (2011)
Month to date precipitation 0.18  
Year to date precipitation 5.21  
Sea Level Pressure  
Sea Level Pressure 30.14 in    
Wind  
Wind Speed 2 mph (East)    
Max Wind Speed 9 mph    
Max Gust Speed -    
Visibility 10 miles    
Events      
T = Trace of Precipitation, MM = Missing Value Source: NWS Daily Summary

Daily Weather History Graph

Daily Weather History Graph

Search for Another Location

Airport or City:

Trip Planner

Search our weather history database for the weather conditions in past years. The results will help you decide how hot, cold, wet, or windy it might be!

Date:

Astronomy

Feb. 01, 2014 Rise Set
Actual Time 7:35 AM EST 6:07 PM EST
Civil Twilight 7:08 AM EST 6:34 PM EST
Nautical Twilight 6:38 AM EST 7:04 PM EST
Astronomical Twilight 6:09 AM EST 7:33 PM EST
Moon 8:31 AM EST (2/1) 8:33 PM EST (2/1)
Length of Visible Light 11h 25m
Length of Day
10h 32m
Waxing Crescent, 5% of the Moon is Illuminated
Feb 1
Waxing Crescent
Feb 6
First Quarter
Feb 14
Full
Feb 22
Last Quarter
Mar 1
New

Hourly Weather History & Observations

Time (EST) Temp. Windchill Dew Point Humidity Pressure Visibility Wind Dir Wind Speed Gust Speed Precip Events Conditions
12:15 AM 33.8 °F - 8.6 °F 35% 30.14 in 10.0 mi Calm Calm - N/A   Clear
12:35 AM 32.0 °F 28.7 °F 10.4 °F 41% 30.14 in 10.0 mi NE 3.5 mph - N/A   Clear
12:55 AM 32.0 °F 28.7 °F 8.6 °F 38% 30.14 in 10.0 mi ENE 3.5 mph - N/A   Clear
1:15 AM 30.2 °F - 14.0 °F 51% 30.14 in 10.0 mi Calm Calm - N/A   Clear
1:35 AM 32.0 °F - 10.4 °F 41% 30.14 in 10.0 mi Calm Calm - N/A   Clear
1:55 AM 32.0 °F - 8.6 °F 38% 30.15 in 10.0 mi Calm Calm - N/A   Clear
2:15 AM 30.2 °F 26.7 °F 14.0 °F 51% 30.15 in 10.0 mi North 3.5 mph - N/A   Clear
2:35 AM 30.2 °F 25.4 °F 12.2 °F 47% 30.15 in 10.0 mi NE 4.6 mph - N/A   Clear
2:55 AM 32.0 °F 28.7 °F 10.4 °F 41% 30.14 in 10.0 mi NE 3.5 mph - N/A   Clear
3:15 AM 30.2 °F - 12.2 °F 47% 30.15 in 10.0 mi Calm Calm - N/A   Clear
3:35 AM 32.0 °F - 10.4 °F 41% 30.15 in 10.0 mi Calm Calm - N/A   Clear
3:55 AM 32.0 °F 28.7 °F 10.4 °F 41% 30.14 in 10.0 mi ENE 3.5 mph - N/A   Clear
4:15 AM 30.2 °F 26.7 °F 14.0 °F 51% 30.14 in 10.0 mi NE 3.5 mph - N/A   Clear
4:35 AM 32.0 °F 28.7 °F 12.2 °F 44% 30.14 in 10.0 mi ENE 3.5 mph - N/A   Clear
4:55 AM 28.4 °F 24.6 °F 15.8 °F 59% 30.14 in 10.0 mi ENE 3.5 mph - N/A   Clear
5:15 AM 28.4 °F - 14.0 °F 55% 30.14 in 10.0 mi Calm Calm - N/A   Clear
5:35 AM 28.4 °F 24.6 °F 14.0 °F 55% 30.14 in 10.0 mi East 3.5 mph - N/A   Clear
5:55 AM 32.0 °F 28.7 °F 12.2 °F 44% 30.14 in 10.0 mi ENE 3.5 mph - N/A   Clear
6:15 AM 32.0 °F - 10.4 °F 41% 30.14 in 10.0 mi Calm Calm - N/A   Clear
6:35 AM 32.0 °F 28.7 °F 12.2 °F 44% 30.15 in 10.0 mi ENE 3.5 mph - N/A   Clear
6:55 AM 30.2 °F - 14.0 °F 51% 30.16 in 10.0 mi Calm Calm - N/A   Clear
7:15 AM 30.2 °F 26.7 °F 12.2 °F 47% 30.16 in 10.0 mi ENE 3.5 mph - N/A   Clear
7:35 AM 32.0 °F - 10.4 °F 41% 30.16 in 10.0 mi Calm Calm - N/A   Scattered Clouds
7:55 AM 32.0 °F - 10.4 °F 41% 30.16 in 10.0 mi Calm Calm - N/A   Mostly Cloudy
8:15 AM 30.2 °F - 19.4 °F 64% 30.16 in 10.0 mi Calm Calm - N/A   Overcast
8:35 AM 32.0 °F - 15.8 °F 51% 30.17 in 10.0 mi Calm Calm - N/A   Overcast
8:55 AM 35.6 °F 32.8 °F 10.4 °F 35% 30.17 in 10.0 mi East 3.5 mph - N/A   Overcast
9:15 AM 35.6 °F - 14.0 °F 41% 30.18 in 10.0 mi Calm Calm - N/A   Overcast
9:35 AM 37.4 °F - 12.2 °F 36% 30.18 in 10.0 mi Calm Calm - N/A   Overcast
9:55 AM 39.2 °F 37.0 °F 12.2 °F 33% 30.17 in 10.0 mi East 3.5 mph - N/A   Overcast
10:15 AM 41.0 °F 38.0 °F 10.4 °F 29% 30.17 in 10.0 mi East 4.6 mph - N/A   Overcast
10:35 AM 42.8 °F 41.1 °F 8.6 °F 25% 30.17 in 10.0 mi East 3.5 mph - N/A   Overcast
10:55 AM 44.6 °F 43.1 °F 8.6 °F 23% 30.19 in 10.0 mi East 3.5 mph - N/A   Overcast
11:15 AM 46.4 °F 45.2 °F 6.8 °F 20% 30.19 in 10.0 mi East 3.5 mph - N/A   Overcast
11:35 AM 48.2 °F - 6.8 °F 19% 30.18 in 10.0 mi East 4.6 mph - N/A   Overcast
11:55 AM 50.0 °F - 8.6 °F 19% 30.17 in 10.0 mi East 3.5 mph - N/A   Overcast
12:15 PM 51.8 °F - 8.6 °F 18% 30.16 in 10.0 mi Calm Calm - N/A   Overcast
12:35 PM 53.6 °F - 8.6 °F 16% 30.14 in 10.0 mi East 4.6 mph - N/A   Overcast
12:55 PM 55.4 °F - 8.6 °F 15% 30.13 in 10.0 mi ENE 4.6 mph - N/A   Overcast
1:15 PM 55.4 °F - 12.2 °F 18% 30.12 in 10.0 mi ESE 6.9 mph - N/A   Overcast
1:35 PM 57.2 °F - 12.2 °F 17% 30.11 in 10.0 mi SE 4.6 mph - N/A   Overcast
1:55 PM 57.2 °F - 15.8 °F 20% 30.11 in 10.0 mi East 6.9 mph - N/A   Overcast
2:15 PM 57.2 °F - 17.6 °F 21% 30.11 in 10.0 mi ESE 3.5 mph - N/A   Overcast
2:35 PM 59.0 °F - 23.0 °F 25% 30.11 in 10.0 mi SSW 4.6 mph - N/A   Overcast
2:55 PM 59.0 °F - 28.4 °F 31% 30.10 in 10.0 mi SSE 4.6 mph - N/A   Overcast
3:15 PM 59.0 °F - 30.2 °F 34% 30.09 in 10.0 mi SSW 6.9 mph - N/A   Scattered Clouds
3:35 PM 59.0 °F - 32.0 °F 36% 30.09 in 10.0 mi South 9.2 mph - N/A   Clear
3:55 PM 59.0 °F - 30.2 °F 34% 30.09 in 10.0 mi South 5.8 mph - N/A   Clear
4:15 PM 59.0 °F - 28.4 °F 31% 30.09 in 10.0 mi South 3.5 mph - N/A   Clear
4:35 PM 59.0 °F - 30.2 °F 34% 30.09 in 10.0 mi South 6.9 mph - N/A   Clear
4:55 PM 59.0 °F - 28.4 °F 31% 30.09 in 10.0 mi South 5.8 mph - N/A   Clear
5:15 PM 59.0 °F - 30.2 °F 34% 30.10 in 10.0 mi SSW 4.6 mph - N/A   Clear
5:35 PM 55.4 °F - 37.4 °F 51% 30.10 in 10.0 mi SSW 8.1 mph - N/A   Clear
5:55 PM 53.6 °F - 39.2 °F 58% 30.11 in 10.0 mi South 3.5 mph - N/A   Clear
6:15 PM 53.6 °F - 39.2 °F 58% 30.11 in 10.0 mi Calm Calm - N/A   Mostly Cloudy
6:35 PM 53.6 °F - 35.6 °F 51% 30.11 in 10.0 mi Calm Calm - N/A   Scattered Clouds
6:55 PM 51.8 °F - 32.0 °F 47% 30.11 in 10.0 mi Calm Calm - N/A   Clear
7:15 PM 51.8 °F - 30.2 °F 44% 30.12 in 10.0 mi Calm Calm - N/A   Scattered Clouds
7:35 PM 51.8 °F - 26.6 °F 38% 30.12 in 10.0 mi Calm Calm - N/A   Mostly Cloudy
7:55 PM 51.8 °F - 26.6 °F 38% 30.13 in 10.0 mi Calm Calm - N/A   Overcast
8:15 PM 51.8 °F - 26.6 °F 38% 30.13 in 10.0 mi Calm Calm - N/A   Overcast
8:35 PM 50.0 °F - 30.2 °F 47% 30.13 in 10.0 mi Calm Calm - N/A   Overcast
8:55 PM 50.0 °F - 28.4 °F 43% 30.13 in 10.0 mi Calm Calm - N/A   Overcast
9:15 PM 51.8 °F - 28.4 °F 41% 30.13 in 10.0 mi ENE 3.5 mph - N/A   Overcast
9:35 PM 50.0 °F - 28.4 °F 43% 30.13 in 10.0 mi Calm Calm - N/A   Overcast
9:55 PM 50.0 °F - 28.4 °F 43% 30.14 in 10.0 mi Calm Calm - N/A   Overcast
10:15 PM 50.0 °F - 30.2 °F 47% 30.14 in 10.0 mi Calm Calm - N/A   Mostly Cloudy
10:35 PM 50.0 °F - 30.2 °F 47% 30.13 in 10.0 mi Calm Calm - N/A   Scattered Clouds
10:55 PM 48.2 °F - 28.4 °F 46% 30.14 in 10.0 mi East 3.5 mph - N/A   Mostly Cloudy
11:15 PM 46.4 °F 45.2 °F 28.4 °F 50% 30.13 in 10.0 mi East 3.5 mph - N/A   Scattered Clouds
11:35 PM 46.4 °F 45.2 °F 28.4 °F 50% 30.13 in 10.0 mi East 3.5 mph - N/A   Scattered Clouds
11:55 PM 46.4 °F 45.2 °F 28.4 °F 50% 30.12 in 10.0 mi East 3.5 mph - N/A   Clear